User: anonymous   Login
Location: Hurstbourne Priors
(51.2000°N, 1.3667°W)
Time: 17:17:15
(UTC+00:00)
Language:

Cosmos 1408 Rocket - Orbit

View from above orbital plane
View from above orbital plane
View from above satellite
View from above satellite

Ground track
Ground track

The orbit data is extracted from the following two-line orbital elements,

1 13553U 82092B   20196.47157762  .00000047  00000-0  27593-5 0  9997
2 13553  82.5690 267.4273 0019926 294.3429  76.0517 14.84234924 43655
Epoch (UTC): 14 July 2020 11:19:04
Eccentricity: 0.0019926
inclination: 82.5690°
perigee height: 602 km
apogee height: 630 km
right ascension of ascending node: 267.4273°
argument of perigee: 294.3429°
revolutions per day: 14.84234924
mean anomaly at epoch: 76.0517°
orbit number at epoch: 4365

The dashed part of the orbit path shows where the satellite is in the earth's shadow,  

DLR